Location: Marshall
(39.8477°N, 87.1868°W)
Time: 03:44:28
(UTC+00:00)

BlueWalker 3 - Pass Details

Date: 10 May 2026
Orbit: 447 x 456 km, 53.2° (Epoch: 9 June)

Event Time Altitude Azimuth Distance (km) Brightness Sun altitude
Exits shadow 07:21:56 21° 48° (NE) 1,044 4.2 -28.2°
Drops below altitude 10° 07:23:16 10° 49° (NE) 1,573 5.3 -28.1°
Sets 07:25:24 0° 50° (NE) 2,448 6.5 -27.9°
